MM1PTT-13 Weather Reports


time (UTC)temp
C
wind
direction
speed
KPH
gust
KPH
rain 1hr
cm
rain 24hr
cm
rain mn
cm
humidity
%
barometer
mb
20260508014043 8 74 0.0 0.0 0.03 0.00 0.05 86 983.1
20260508013543 8 270 1.6 3.2 0.03 0.00 0.05 86 983.1
20260508013043 8 240 4.8 8.0 0.03 0.00 0.05 86 983.1
20260508012542 8 179 3.2 6.4 0.03 0.00 0.05 86 983.1
20260508012043 8 198 0.0 1.6 0.03 0.00 0.05 86 983.1
20260508011544 8 298 1.6 3.2 0.03 0.00 0.05 86 983.1
20260508011043 8 264 1.6 3.2 0.03 0.00 0.05 86 982.7
20260508010543 8 265 0.0 1.6 0.03 0.00 0.05 87 983.1
20260508010042 8 85 0.0 1.6 0.03 0.00 0.05 86 983.1
20260508005543 8 259 1.6 3.2 0.03 0.00 0.05 86 982.7
20260508005042 8 91 3.2 3.2 0.03 0.00 0.05 86 983.1
20260508004543 8 326 0.0 1.6 0.03 0.00 0.05 86 983.1
20260508004043 8 161 1.6 3.2 0.00 0.00 0.05 85 983.1
20260508003543 9 345 0.0 0.0 0.00 0.00 0.05 84 983.1
20260508003043 9 253 3.2 4.8 0.00 0.00 0.03 83 983.1
20260508002542 9 214 1.6 3.2 0.00 0.00 0.00 82 983.1
20260508002042 9 290 0.0 1.6 0.00 0.00 0.00 81 983.1
20260508001542 9 133 0.0 1.6 0.00 0.00 0.00 80 983.1
20260508001042 10 86 1.6 3.2 0.00 0.00 0.00 79 983.1
20260508000542 10 266 1.6 3.2 0.00 0.00 0.00 78 983.1
20260508000043 10 270 1.6 3.2 0.00 0.00 0.00 75 983.1
20260507235543 10 279 3.2 4.8 0.00 0.00 0.00 75 983.1
20260507235042 10 162 3.2 3.2 0.00 0.00 0.00 75 982.7
20260507234542 10 212 3.2 4.8 0.00 0.00 0.00 75 982.7
20260507234042 10 106 3.2 3.2 0.00 0.00 0.00 75 983.1
20260507233543 10 106 0.0 1.6 0.00 0.00 0.00 75 983.1
20260507233044 10 71 0.0 1.6 0.00 0.00 0.00 76 982.7
20260507232542 10 170 0.0 1.6 0.00 0.00 0.00 76 982.7
20260507232043 10 155 0.0 1.6 0.00 0.00 0.00 75 983.1
20260507231543 10 198 1.6 3.2 0.00 0.00 0.00 75 983.1
20260507231042 10 185 3.2 4.8 0.00 0.00 0.00 75 982.7
20260507230542 10 188 0.0 1.6 0.00 0.00 0.00 76 982.7
20260507230043 10 195 0.0 1.6 0.00 0.00 0.33 76 983.1
20260507225542 10 213 1.6 3.2 0.00 0.00 0.33 76 983.1
20260507225042 10 177 0.0 0.0 0.00 0.00 0.33 76 983.1
20260507224543 10 308 1.6 3.2 0.00 0.00 0.33 75 982.7
20260507224043 10 163 0.0 1.6 0.00 0.00 0.33 76 982.7
20260507223544 10 237 3.2 3.2 0.00 0.00 0.33 76 983.1
20260507223042 10 131 6.4 8.0 0.00 0.00 0.33 76 982.7
20260507222543 10 242 1.6 3.2 0.00 0.00 0.33 77 982.7
20260507222042 10 101 1.6 3.2 0.00 0.00 0.33 77 982.7
20260507221542 10 206 3.2 3.2 0.00 0.00 0.33 77 983.1
20260507221042 10 186 1.6 3.2 0.00 0.00 0.33 77 982.7
20260507220543 10 213 0.0 1.6 0.00 0.00 0.33 77 982.7
20260507220043 10 103 0.0 0.0 0.00 0.00 0.33 77 982.7
20260507215543 10 216 1.6 3.2 0.00 0.00 0.33 77 982.7
20260507215043 10 293 0.0 1.6 0.00 0.00 0.33 77 982.7
20260507214542 10 150 1.6 8.0 0.00 0.00 0.33 77 982.7
20260507214042 10 33 0.0 1.6 0.00 0.00 0.33 76 982.4
20260507213542 10 162 4.8 8.0 0.00 0.00 0.33 76 982.7
20260507213043 10 188 1.6 3.2 0.00 0.00 0.33 76 982.7
20260507212544 10 206 1.6 3.2 0.00 0.00 0.33 76 982.4
20260507212042 10 166 3.2 3.2 0.00 0.00 0.33 76 982.7
20260507211543 10 163 3.2 4.8 0.00 0.00 0.33 76 982.7
20260507211043 10 157 6.4 8.0 0.00 0.00 0.33 76 982.7
20260507210543 10 212 6.4 16.1 0.00 0.00 0.33 75 982.4
20260507210043 10 154 4.8 6.4 0.00 0.00 0.33 75 982.4
20260507205542 10 146 3.2 4.8 0.00 0.00 0.33 75 982.4
20260507205043 10 212 4.8 9.7 0.00 0.00 0.33 75 982.7
20260507204543 11 191 4.8 8.0 0.00 0.00 0.33 74 982.7
20260507203543 11 195 4.8 6.4 0.00 0.00 0.33 72 982.4
20260507203043 11 215 1.6 3.2 0.00 0.00 0.33 72 982.4
20260507202543 11 214 3.2 3.2 0.00 0.00 0.33 71 982.7
20260507202043 11 231 0.0 1.6 0.00 0.00 0.33 71 982.4
20260507201542 11 125 3.2 4.8 0.00 0.00 0.33 70 982.4
20260507201043 11 245 4.8 6.4 0.00 0.00 0.33 70 982.4
20260507200543 11 257 6.4 9.7 0.00 0.00 0.33 69 982.4
20260507200043 11 172 8.0 9.7 0.00 0.00 0.33 69 982.4
20260507195543 11 216 4.8 6.4 0.00 0.00 0.33 68 982.1
20260507195043 11 240 3.2 4.8 0.00 0.00 0.33 68 982.4
20260507194543 11 218 11.3 16.1 0.00 0.00 0.33 68 982.1
20260507194043 11 97 6.4 12.9 0.00 0.00 0.33 68 982.1
20260507193542 11 135 3.2 4.8 0.00 0.00 0.33 68 982.1
20260507192043 11 175 3.2 4.8 0.00 0.00 0.33 67 982.1
20260507191543 12 255 3.2 3.2 0.00 0.00 0.33 66 982.1
20260507190542 12 248 6.4 11.3 0.00 0.00 0.33 65 982.1
20260507190043 12 352 3.2 4.8 0.00 0.00 0.33 64 982.1
20260507185542 12 146 3.2 4.8 0.00 0.00 0.33 63 982.1
20260507185043 12 120 8.0 11.3 0.00 0.00 0.33 62 982.1
20260507184043 12 208 4.8 8.0 0.00 0.00 0.33 60 982.1
20260507183542 12 223 3.2 4.8 0.00 0.00 0.33 60 982.1
20260507183042 12 204 4.8 6.4 0.00 0.00 0.33 59 982.1
20260507182042 12 281 6.4 8.0 0.00 0.00 0.33 57 982.1
20260507181543 12 168 1.6 3.2 0.00 0.00 0.33 56 982.1
20260507181045 12 266 3.2 6.4 0.00 0.00 0.33 56 982.1
20260507180543 12 144 6.4 8.0 0.00 0.00 0.33 55 981.7
20260507180043 12 272 4.8 8.0 0.00 0.00 0.33 54 982.1
20260507175543 12 210 4.8 8.0 0.00 0.00 0.33 53 981.7
20260507175043 12 157 4.8 8.0 0.00 0.00 0.33 52 981.7
20260507174543 12 160 4.8 9.7 0.00 0.00 0.33 52 981.7
20260507174043 12 263 8.0 9.7 0.00 0.00 0.33 53 982.1
20260507173544 12 183 3.2 8.0 0.00 0.00 0.33 53 982.1
20260507173043 12 113 8.0 16.1 0.00 0.00 0.33 53 982.1
20260507172543 12 103 4.8 6.4 0.00 0.00 0.33 53 982.1
20260507172042 12 163 8.0 11.3 0.00 0.00 0.33 53 982.1
20260507171542 12 176 8.0 14.5 0.00 0.00 0.33 54 981.7
20260507171043 12 245 4.8 8.0 0.00 0.00 0.33 53 982.1
20260507170543 13 152 3.2 6.4 0.00 0.00 0.33 53 981.7
20260507170042 13 119 6.4 14.5 0.00 0.00 0.33 52 982.1
20260507165543 13 240 3.2 4.8 0.00 0.00 0.33 53 982.1
20260507165043 13 207 9.7 14.5 0.00 0.00 0.33 53 982.1
20260507164543 13 171 8.0 11.3 0.00 0.00 0.33 52 981.7
20260507164043 13 311 6.4 9.7 0.00 0.00 0.33 52 981.7
20260507163543 13 116 3.2 8.0 0.00 0.00 0.33 54 982.1
20260507163043 13 153 6.4 14.5 0.00 0.00 0.33 55 981.7
20260507162543 13 70 4.8 8.0 0.00 0.00 0.33 56 981.7
20260507162043 13 109 6.4 9.7 0.00 0.00 0.33 55 981.7
20260507161543 13 221 8.0 16.1 0.00 0.00 0.33 56 981.7
20260507161043 13 172 4.8 4.8 0.00 0.00 0.33 59 982.1
20260507160544 13 213 6.4 9.7 0.00 0.00 0.33 59 981.7
20260507160042 13 270 12.9 16.1 0.00 0.00 0.33 60 981.7
20260507155542 13 271 4.8 11.3 0.00 0.00 0.33 64 982.1
20260507155043 13 177 6.4 11.3 0.00 0.00 0.33 66 981.7
20260507154543 13 261 8.0 12.9 0.00 0.00 0.33 66 982.1
20260507154043 13 210 3.2 4.8 0.00 0.00 0.33 67 982.1
20260507153543 13 175 8.0 16.1 0.00 0.00 0.33 65 982.1
20260507153043 14 257 6.4 9.7 0.00 0.00 0.33 66 982.1
20260507152543 14 228 8.0 11.3 0.00 0.00 0.33 66 982.1
20260507152043 14 243 8.0 11.3 0.00 0.00 0.33 65 982.1
20260507151543 13 267 6.4 8.0 0.00 0.00 0.33 69 982.1
20260507151043 13 171 4.8 6.4 0.00 0.00 0.33 69 982.1
20260507150544 12 231 11.3 14.5 0.00 0.00 0.33 72 982.1
20260507150043 12 121 4.8 8.0 0.00 0.00 0.33 77 982.1
20260507145542 12 312 1.6 3.2 0.00 0.00 0.33 77 982.4
20260507145045 12 248 4.8 9.7 0.03 0.00 0.33 77 982.4
20260507144544 12 332 9.7 12.9 0.03 0.00 0.33 77 982.4
20260507144043 12 181 1.6 3.2 0.03 0.00 0.33 78 982.1
20260507143542 12 235 3.2 6.4 0.05 0.00 0.33 78 982.1
20260507143043 12 241 4.8 6.4 0.05 0.00 0.33 79 982.1
20260507142548 12 128 3.2 6.4 0.05 0.00 0.33 81 982.4
20260507142043 12 191 4.8 8.0 0.08 0.00 0.33 81 982.4
20260507141543 12 158 3.2 4.8 0.08 0.00 0.33 82 982.4
20260507141043 11 165 4.8 11.3 0.08 0.00 0.33 82 982.4
20260507140544 11 135 8.0 11.3 0.08 0.00 0.33 82 982.4
20260507140044 11 125 4.8 8.0 0.08 0.00 0.33 82 982.4
20260507135543 11 1 3.2 6.4 0.10 0.00 0.33 82 982.7
20260507135043 11 157 4.8 8.0 0.10 0.00 0.33 83 982.7
20260507134543 11 137 4.8 6.4 0.10 0.00 0.33 82 982.7
20260507134043 11 218 4.8 6.4 0.10 0.00 0.33 82 982.7
20260507133056 11 189 3.2 4.8 0.10 0.00 0.33 83 982.7
20260507132544 10 6 1.6 3.2 0.10 0.00 0.33 85 982.7
20260507132043 10 145 3.2 4.8 0.08 0.00 0.33 86 982.7
20260507131544 10 249 4.8 6.4 0.08 0.00 0.33 86 983.1
20260507131043 10 259 3.2 4.8 0.08 0.00 0.30 84 983.1
20260507130543 10 45 4.8 8.0 0.08 0.00 0.23 82 982.7
20260507130043 10 37 1.6 3.2 0.05 0.00 0.23 82 982.7
20260507125543 10 230 8.0 20.9 0.05 0.00 0.20 85 983.1
20260507125043 10 84 3.2 4.8 0.03 0.00 0.18 85 983.1
20260507124543 10 356 1.6 3.2 0.03 0.00 0.13 84 983.1
20260507124044 10 240 0.0 1.6 0.00 0.00 0.10 82 983.1
20260507123543 11 157 3.2 3.2 0.00 0.00 0.00 77 982.7
20260507123043 11 258 11.3 16.1 0.00 0.00 0.00 71 982.7
20260507122543 11 280 9.7 16.1 0.00 0.00 0.00 70 982.7
20260507122043 11 67 3.2 3.2 0.00 0.00 0.00 72 982.7
20260507121544 12 32 12.9 19.3 0.00 0.00 0.00 69 983.1
20260507121044 12 174 6.4 9.7 0.00 0.00 0.00 68 982.7
20260507120543 12 167 9.7 14.5 0.00 0.00 0.00 68 982.7
20260507120043 12 285 1.6 3.2 0.00 0.00 0.00 68 982.7
20260507115543 12 277 4.8 8.0 0.00 0.00 0.00 67 982.7
20260507115043 12 233 6.4 11.3 0.00 0.00 0.00 67 982.7
20260507114543 12 319 11.3 19.3 0.00 0.00 0.00 67 982.7
20260507114047 12 193 4.8 8.0 0.00 0.00 0.00 67 982.7
20260507113543 12 227 0.0 1.6 0.00 0.00 0.00 68 982.7
20260507113048 12 155 4.8 8.0 0.00 0.00 0.00 68 982.7
20260507112542 12 203 8.0 16.1 0.00 0.00 0.00 67 983.1
20260507112042 12 162 3.2 3.2 0.00 0.00 0.00 67 982.7
20260507111543 12 279 9.7 14.5 0.00 0.00 0.00 68 983.1
20260507111043 12 198 6.4 9.7 0.00 0.00 0.00 69 983.1
20260507110542 12 130 9.7 12.9 0.00 0.00 0.00 69 983.1
20260507110045 12 43 11.3 16.1 0.00 0.00 0.00 69 982.7
20260507105544 12 277 6.4 8.0 0.00 0.00 0.00 69 983.1
20260507105042 11 170 12.9 16.1 0.00 0.00 0.00 69 983.4
20260507104542 11 304 6.4 12.9 0.00 0.00 0.00 69 983.1
20260507104043 12 222 6.4 11.3 0.00 0.00 0.00 69 983.1
20260507103542 12 140 9.7 11.3 0.00 0.00 0.00 68 983.1
20260507103042 12 219 9.7 16.1 0.00 0.00 0.00 68 983.1
20260507102542 11 137 4.8 8.0 0.00 0.00 0.00 69 983.1
20260507102045 11 226 9.7 16.1 0.00 0.00 0.00 69 983.1
20260507101543 11 76 3.2 6.4 0.00 0.00 0.00 69 983.1
20260507101046 11 132 6.4 8.0 0.00 0.00 0.00 69 983.1
20260507100542 11 186 4.8 6.4 0.00 0.00 0.00 69 983.1
20260507100042 11 171 8.0 9.7 0.00 0.00 0.00 69 983.1
20260507095543 11 320 6.4 9.7 0.00 0.00 0.00 70 983.1
20260507095042 11 210 4.8 8.0 0.00 0.00 0.00 70 983.1
20260507094543 11 201 4.8 8.0 0.00 0.00 0.00 70 983.1
20260507094042 10 97 3.2 6.4 0.00 0.00 0.00 70 983.1
20260507093543 11 172 4.8 8.0 0.00 0.00 0.00 71 983.1
20260507093043 10 22 0.0 1.6 0.00 0.00 0.00 72 983.1
20260507092543 10 149 3.2 4.8 0.00 0.00 0.00 72 983.1
20260507092043 10 191 4.8 6.4 0.00 0.00 0.00 72 983.1
20260507091543 10 131 6.4 8.0 0.00 0.00 0.00 73 983.1
20260507091045 10 276 3.2 8.0 0.00 0.00 0.00 74 983.1
20260507090543 10 260 3.2 3.2 0.00 0.00 0.00 74 983.1
20260507090043 10 117 1.6 3.2 0.00 0.00 0.00 74 983.1
20260507085543 10 228 3.2 4.8 0.00 0.00 0.00 73 983.1
20260507085043 10 243 3.2 4.8 0.00 0.00 0.00 73 983.1
20260507084543 10 245 3.2 6.4 0.00 0.00 0.00 73 983.1
20260507084043 10 204 0.0 1.6 0.00 0.00 0.00 72 983.1
20260507083543 10 137 3.2 3.2 0.00 0.00 0.00 72 983.1
20260507083043 10 206 3.2 6.4 0.00 0.00 0.00 72 983.1
20260507082543 10 155 1.6 3.2 0.00 0.00 0.00 73 983.4
20260507082042 10 270 3.2 3.2 0.00 0.00 0.00 74 983.1
20260507081542 9 44 0.0 1.6 0.00 0.00 0.00 76 983.1
20260507081042 9 22 3.2 4.8 0.00 0.00 0.00 75 983.1
20260507080543 9 70 3.2 3.2 0.00 0.00 0.00 75 983.1
20260507080042 8 56 4.8 4.8 0.00 0.00 0.00 75 983.1
20260507075543 8 26 1.6 3.2 0.00 0.00 0.00 76 983.4
20260507075044 8 52 3.2 3.2 0.00 0.00 0.00 76 983.1
20260507074542 8 41 3.2 3.2 0.00 0.00 0.00 76 983.4
20260507074043 8 60 1.6 3.2 0.00 0.00 0.00 76 983.4
20260507073542 8 58 0.0 1.6 0.00 0.00 0.00 77 983.4
20260507073042 8 44 3.2 3.2 0.00 0.00 0.00 76 983.4
20260507072543 8 61 1.6 3.2 0.00 0.00 0.00 76 983.4
20260507072044 8 33 1.6 3.2 0.00 0.00 0.00 77 983.1
20260507071543 7 47 3.2 3.2 0.00 0.00 0.00 78 983.4
20260507071043 7 77 4.8 4.8 0.00 0.00 0.00 78 983.1
20260507070547 7 27 4.8 4.8 0.00 0.00 0.00 78 983.1
20260507070042 7 24 1.6 1.6 0.00 0.00 0.00 78 983.1
20260507065543 7 26 4.8 4.8 0.00 0.00 0.00 79 983.1
20260507065042 7 9 3.2 3.2 0.00 0.00 0.00 78 983.4
20260507064542 7 32 3.2 3.2 0.00 0.00 0.00 79 983.1
20260507064043 7 77 0.0 1.6 0.00 0.00 0.00 78 983.1
20260507063542 7 47 4.8 4.8 0.00 0.00 0.00 78 983.1
20260507063044 7 63 3.2 3.2 0.00 0.00 0.00 78 983.1
20260507062542 6 57 3.2 3.2 0.00 0.00 0.00 77 983.4
20260507062043 6 54 3.2 4.8 0.00 0.00 0.00 77 983.4
20260507061544 6 43 4.8 4.8 0.00 0.00 0.00 77 983.4
20260507061043 6 33 3.2 3.2 0.00 0.00 0.00 78 983.4
20260507060542 6 11 1.6 3.2 0.00 0.00 0.00 78 983.4
20260507060043 6 62 0.0 1.6 0.00 0.00 0.00 79 983.4
20260507055543 6 68 1.6 3.2 0.00 0.00 0.00 79 983.1
20260507055042 6 34 3.2 3.2 0.00 0.00 0.00 79 983.1
20260507054543 6 26 0.0 0.0 0.00 0.00 0.00 78 983.4
20260507054043 6 352 1.6 3.2 0.00 0.00 0.00 77 983.4
20260507053542 6 55 1.6 3.2 0.00 0.00 0.00 78 983.4
20260507053043 6 53 0.0 0.0 0.00 0.00 0.00 80 983.4
20260507052544 6 78 1.6 1.6 0.00 0.00 0.00 80 983.4
20260507052043 6 120 0.0 1.6 0.00 0.00 0.00 80 983.4
20260507051543 5 53 0.0 0.0 0.00 0.00 0.00 80 983.4
20260507051043 5 66 0.0 0.0 0.00 0.00 0.00 80 983.1
20260507050543 5 67 0.0 1.6 0.00 0.00 0.00 80 983.4
20260507050043 5 97 0.0 1.6 0.00 0.00 0.00 79 983.4
20260507045542 5 80 0.0 0.0 0.00 0.00 0.00 79 983.4
20260507045042 5 88 0.0 1.6 0.00 0.00 0.00 78 983.4
20260507044542 6 29 1.6 3.2 0.00 0.00 0.00 78 983.4
20260507044043 6 53 1.6 3.2 0.00 0.00 0.00 77 983.4
20260507043544 6 74 0.0 0.0 0.00 0.00 0.00 77 983.4
20260507043042 6 41 0.0 1.6 0.00 0.00 0.00 76 983.4
20260507042542 6 36 3.2 3.2 0.00 0.00 0.00 76 983.4
20260507042042 7 74 3.2 3.2 0.00 0.00 0.00 75 983.4
20260507041542 7 71 0.0 1.6 0.00 0.00 0.00 74 983.1
20260507041043 7 118 1.6 3.2 0.00 0.00 0.00 74 983.4
20260507040544 7 163 3.2 4.8 0.00 0.00 0.00 74 983.4
20260507040043 7 105 0.0 1.6 0.00 0.00 0.00 74 983.4
20260507035542 7 85 3.2 3.2 0.00 0.00 0.00 74 983.7
20260507035042 7 137 1.6 3.2 0.00 0.00 0.00 74 983.4
20260507034543 7 251 1.6 3.2 0.00 0.00 0.00 73 983.4
20260507034043 7 69 1.6 3.2 0.00 0.00 0.00 73 983.4
20260507033542 7 107 4.8 6.4 0.00 0.00 0.00 73 983.4
20260507033042 7 139 1.6 3.2 0.00 0.00 0.00 73 983.4
20260507032542 7 270 6.4 9.7 0.00 0.00 0.00 72 983.7
20260507032043 7 218 8.0 9.7 0.00 0.00 0.00 73 983.4
20260507031544 6 167 3.2 3.2 0.00 0.00 0.00 74 983.7
20260507031043 6 146 1.6 3.2 0.00 0.00 0.00 76 983.7
20260507030543 6 44 0.0 0.0 0.00 0.00 0.00 76 983.7
20260507030045 6 114 0.0 0.0 0.00 0.00 0.00 76 983.7
20260507025543 6 78 0.0 1.6 0.00 0.00 0.00 76 983.7
20260507025042 6 73 0.0 1.6 0.00 0.00 0.00 76 984.1
20260507024543 6 58 0.0 1.6 0.00 0.00 0.00 75 983.7
20260507024044 6 84 0.0 0.0 0.00 0.00 0.00 75 983.7
20260507023543 6 71 1.6 3.2 0.00 0.00 0.00 75 983.7
20260507023043 6 49 0.0 1.6 0.00 0.00 0.00 75 983.7
20260507022543 6 38 1.6 3.2 0.00 0.00 0.00 75 983.7
20260507022042 6 58 0.0 1.6 0.00 0.00 0.00 74 984.1
20260507021543 6 42 0.0 0.0 0.00 0.00 0.00 74 984.1
20260507021043 6 49 0.0 0.0 0.00 0.00 0.00 73 984.1
20260507020543 6 48 1.6 3.2 0.00 0.00 0.00 74 984.1
20260507020042 6 1 0.0 0.0 0.00 0.00 0.00 73 984.1
20260507015543 6 56 1.6 3.2 0.00 0.00 0.00 73 984.1
20260507015043 6 44 0.0 0.0 0.00 0.00 0.00 72 984.1
20260507014542 6 46 0.0 1.6 0.00 0.00 0.00 72 984.1